Location: Charleville
(26.4021°S, 146.2454°E)
Time: 04:25:43
(UTC+10:00)

Envisat - Pass Details

Date: 12 November 2025
Orbit: 761 x 762 km, 98.4° (Epoch: 05 December)

Event Time Altitude Azimuth Distance (km) Brightness Sun altitude
Exits shadow 03:09:47 14° 224° (SW) 2,023 5.1 -26.1°
Drops below altitude 10° 03:10:41 10° 218° (SW) 2,314 5.5 -26.0°
Sets 03:13:18 0° 207° (SSW) 3,248 6.4 -25.5°
